Regional Weather Roundup
Issued by NWS

Home | Current Version | Previous Version | Graphics & Text | Print | Product List | Glossary Off
Versions: 1 2 3 4 5 6 7 8 9 10 11 12 13 14 15 16 17 18 19 20 21 22 23 24 25 26 27 28 29 30 31 32 33 34 35 36 37 38 39 40 41 42 43 44 45 46 47 48 49 50

000
ASUS43 KMKX 300703
RWRWI

WISCONSIN REGIONAL WEATHER ROUNDUP
NATIONAL WEATHER SERVICE MILWAUKEE/SULLIVAN WI
200 AM CDT SAT MAY 30 2015

NOTE: "FAIR" INDICATES FEW OR NO CLOUDS BELOW 12,000 FEET WITH NO
SIGNIFICANT WEATHER AND/OR OBSTRUCTIONS TO VISIBILITY.

WIZ001-002-006>008-014>016-023>028-300800-
NORTHWEST WISCONSIN

CITY           SKY/WX    TMP DP  RH WIND       PRES   REMARKS
SUPERIOR ARPT  MOCLDY    45  40  82 N6        30.13R
ASHLAND        CLOUDY    51  44  77 NW7       30.10R
HAYWARD        CLOUDY    50  45  83 N9        30.09R
SIREN          CLOUDY    49  43  78 N7        30.11R
CUMBERLAND     CLOUDY    48  45  87 N7        30.07S
RICE LAKE      CLOUDY    50  46  84 N12       30.08R
CHETEK         CLOUDY    51  49  94 N8G16     30.05S
LADYSMITH      CLOUDY    52  50  91 N16       30.06R
EAU CLAIRE     CLOUDY    55  52  89 N13       30.01R
MENOMONIE      CLOUDY    53  51  92 N17G25    30.03S
NEW RICHMOND   CLOUDY    51  48  88 N15G21    30.07S
OSCEOLA        CLOUDY    51  48  89 N13G18    30.11S
$$

WIZ003>005-009-010-017-018-300800-
NORTH CENTRAL WISCONSIN

CITY           SKY/WX    TMP DP  RH WIND       PRES   REMARKS
MANITOWISH WTR DRIZZLE   48  48 100 N8G18     30.03S
ARBOR VITAE    CLOUDY    52  50  94 N10       30.02R FOG
WOODRUFF       CLOUDY    52  50  94 N10       30.02R FOG
RHINELANDER    LGT RAIN  54  53  97 VRB6      30.00R
EAGLE RIVER    LGT RAIN  53  53  99 N9        30.00R
LAND O LAKES   CLOUDY    53  51  94 N6        30.02R
PHILLIPS       CLOUDY    49  48  95 N8G16     30.03R
TOMAHAWK       LGT RAIN  54  53  95 N5        30.00S
MEDFORD        DRIZZLE   55  54  95 N7        29.98S
MERRILL        LGT RAIN  56  56 100 N9        29.98S
$$

WIZ029-030-035-036-043>047-300800-
CENTRAL WISCONSIN

CITY           SKY/WX    TMP DP  RH WIND       PRES   REMARKS
WAUSAU         LGT RAIN  58  56  93 N9        29.95R
MOSINEE        DRIZZLE   59  59 100 N13G21    29.96R
MARSHFIELD     LGT RAIN  59  56  89 N12       29.95R FOG
STEVENS POINT  DRIZZLE   60  59  97 N5        29.94R
WAUPACA        LGT RAIN  65  64  97 NE8       29.92R
WAUTOMA        NOT AVBL
WISC RAPIDS    HVY RAIN  62  59  90 NE12      29.93S FOG
CAMP DOUGLAS   CLOUDY    64  64 100 CALM      29.90S
$$

WIZ011>013-019>022-031-037>040-048>050-300800-
NORTHEAST WISCONSIN

CITY           SKY/WX    TMP DP  RH WIND       PRES   REMARKS
ANTIGO         RAIN      56  55  95 N14       29.97R
SHAWANO        RAIN      63  62  94 N5        29.92R
OCONTO         CLOUDY    63  63 100 NE7       29.89S
STURGEON BAY   CLOUDY    57  54  88 NE14      29.94R
GREEN BAY      LGT RAIN  65  62  90 N6        29.91R
MANITOWOC      NOT AVBL
APPLETON       LGT RAIN  63  63 100 CALM      29.91S
CLINTONVILLE   RAIN      63  61  94 N3        29.92R
OSHKOSH        RAIN      64  63  96 S3        29.90S FOG
$$

WIZ032>034-041-042-053>061-300800-
SOUTHWEST WISCONSIN

CITY           SKY/WX    TMP DP  RH WIND       PRES   REMARKS
LA CROSSE      HVY RAIN  63  60  90 N14       29.92R FOG
SPARTA         CLOUDY    64  63  96 CALM      29.92S
VIROQUA        CLOUDY    64  64 100 SE7       29.92S
BOSCOBEL       CLOUDY    67  65  93 CALM      29.90S
PRAIRIE DU CHI LGT RAIN  66  63  89 CALM      29.90F
PLATTEVILLE    CLOUDY    68  65  89 SW8       29.93S
$$

WIZ056-057-062-063-064-067-068-300800-
SOUTH CENTRAL WISCONSIN

CITY           SKY/WX    TMP DP  RH WIND       PRES   REMARKS
REEDSBURG      LGT RAIN  64  64 100 CALM      29.91S
BARABOO/DELLS  HVY RAIN  64  62  94 CALM      29.92R
LONE ROCK      CLOUDY    67  64  90 CALM      29.91S
MINERAL POINT  CLOUDY    70  64  83 SW9       29.92F
MADISON        CLOUDY    66  64  93 SE5       29.91S
MIDDLETON      CLOUDY    68  67  96 SE3       29.92F
WATERTOWN      CLOUDY   N/A N/A N/A CALM      29.91S
MONROE         CLOUDY    68  63  83 SW14      29.93S
JANESVILLE     CLOUDY    70  64  83 S6        29.93S
$$

WIZ051-052-058>065-066-070>072-300800-
SOUTHEAST WISCONSIN

CITY           SKY/WX    TMP DP  RH WIND       PRES   REMARKS
MILWAUKEE      CLOUDY    70  63  78 W3        29.92R
WAUKESHA       CLOUDY    63  61  94 CALM      29.93S
MILWAUKEE/TIMM CLOUDY    64  61  88 NW3       29.92S
RACINE         CLOUDY    70  63  78 SW7       29.94R
BURLINGTON     RAIN      65  62  89 SW12G17   29.94R
KENOSHA        CLOUDY    70  64  81 W16       29.93R
FOND DU LAC    HVY RAIN  64  63  96 S5        29.91F FOG
SHEBOYGAN      LGT RAIN  64  63  96 CALM      29.91S
WEST BEND      LGT RAIN  63  61  94 CALM      29.91S
JUNEAU         CLOUDY    64  62  95 CALM      29.93S
$$

LSZ147-162-300800-
LAKE SUPERIOR

STATION/POSITION TIME  TEMP    WIND        PRES    WAVE
                       AIR SEA DIR/SP/G            HT/PER
                 (UTC) (F)     (DEG/KT/KT) (MB)    (FT/S)
W MID LAKE BUOY  0550   42 37  320/  8/ 10   N/A     1/ 3
DEVILS ISLAND    0600   47     310/  9/ 10   N/A
PORT WING        0640   45     260/  2/  3   N/A
SAXON HARBOR     0600   51     330/  2/  5   N/A
$$

LMZ867-665-643>646-300800-
LAKE MICHIGAN

STATION/POSITION TIME  TEMP    WIND        PRES    WAVE
                       AIR SEA DIR/SP/G            HT/PER
                 (UTC) (F)     (DEG/KT/KT) (MB)    (FT/S)
CHAMBERS ISLAND  0600   55     350/ 11/ 14   N/A
N MID LAKE BUOY  0550   45 37  320/  8/ 10   N/A     1/ 4
NORTHPORT PIER   0600   54     330/ 13/ 17   N/A
SISTER BAY       0618   54      10/ 17/ 22   N/A
ALGOMA LAKESHORE 0538          340/  6/  8   N/A
KEWAUNEE LAKESHO 0600   63     330/  2/  5   N/A
SHEBOYGAN LAKESH 0600   65     300/  3/  3   N/A
PORT WASHINGTON  0600   66     320/  4/  7   N/A
ATWATER BUOY     0600   65     300/ 14/ 16   N/A
MILWAUKEE LAKESH 0600          290/ 11/ 15   N/A
S MID LAKE BUOY  0550   49 38  200/ 10/ 14   N/A     0
KENOSHA   LAKESH 0600   72     240/  8/ 13   N/A
$$

TC  - TEMPERATURE IN CELSIUS
VSB - VISIBILITY IN STATUTE MILES
WCI - WIND CHILL INDEX
HX  - HEAT INDEX



USA.gov is the U.S. government's official web portal to all federal, state and local government web resources and services.